Wind_Speed
13 11 11 9 8 7 5 3 2 2 4 6 7 8 9 10 10 11 12 12 12 12 12 12 11 11 11 11 11 10 10 9 9 9 8 8 8 8 7 6 6 6 6 6
16 14 12 11 10 8 6 5 3 1 1 3 4 6 7 7 8 9 10 11 11 10 11 11 11 11 10 10 10 10 9 9 9 9 8 8 7 7 7 7 7 7 7 7
18 16 15 14 12 9 8 7 5 3 1 1 2 4 4 5 6 7 8 8 9 9 10 10 10 10 10 10 9 9 9 9 9 8 8 8 7 7 8 8 8 8 8 8
22 21 19 16 14 11 10 9 8 5 3 2 1 0 2 3 4 5 5 6 7 8 9 9 9 9 9 9 9 9 9 9 9 9 8 8 8 8 8 8 8 9 8 8
25 23 21 19 17 15 13 11 9 8 6 5 3 2 3 2 2 3 4 4 5 6 7 8 8 8 8 9 9 9 8 9 9 9 9 9 9 9 9 9 9 9 9 9
27 25 23 21 19 18 16 14 11 9 8 8 6 5 4 3 1 2 3 3 3 4 5 6 6 7 7 8 8 8 8 8 9 9 9 9 9 9 9 10 10 10 9 9
29 27 25 24 23 21 19 16 13 10 10 10 9 8 6 5 3 2 2 2 2 2 3 4 4 5 6 6 7 8 7 7 8 8 9 9 9 10 10 10 10 10 10 10
29 29 27 26 25 23 21 19 16 14 12 11 11 10 8 6 4 3 3 3 3 2 2 2 3 3 5 6 6 6 6 7 7 8 9 9 9 10 10 10 10 10 10 10
29 29 28 27 26 25 23 21 19 16 14 12 12 11 9 8 6 5 5 5 4 4 3 3 3 3 4 5 6 6 6 7 7 8 9 9 10 11 11 10 10 10 10 10
29 29 29 28 28 27 25 22 21 19 16 14 13 12 11 9 8 7 7 6 6 5 4 4 4 4 5 5 6 6 7 7 8 9 10 10 11 12 11 11 10 10 11 11
30 29 29 29 30 29 27 25 23 21 18 15 14 14 13 12 10 9 8 8 7 6 6 6 6 6 6 6 6 7 7 8 8 9 10 11 12 12 12 11 11 11 11 12
32 30 29 30 30 30 29 27 25 23 22 19 16 15 15 14 12 11 10 9 8 8 7 8 7 7 7 7 8 8 8 8 9 9 10 11 12 12 12 12 12 12 12 12
33 32 30 29 30 31 31 29 27 25 23 21 18 16 16 15 14 13 12 11 11 10 9 9 9 9 9 9 9 9 9 9 9 9 10 12 12 13 13 13 13 12 13 13
35 34 32 30 30 30 31 31 30 28 26 24 22 19 18 17 16 14 13 12 12 12 11 11 11 11 11 11 10 11 11 11 11 11 12 13 13 13 14 14 14 13 14 14
36 35 33 32 31 30 30 30 30 30 28 25 23 22 20 19 17 16 16 15 14 13 13 12 12 11 11 11 11 12 12 12 12 13 13 13 14 15 15 15 14 14 15 15
37 36 34 33 32 32 32 32 31 31 29 27 26 24 21 20 20 18 18 17 16 15 14 13 14 13 13 13 13 13 13 14 14 14 15 15 16 16 16 16 16 16 16 16
38 37 36 34 33 32 34 33 33 32 30 29 27 25 23 22 22 21 19 18 17 16 16 16 16 16 15 15 15 15 15 15 16 16 16 17 17 17 17 18 18 18 18 18
38 38 37 35 35 35 35 33 33 32 31 30 29 27 25 24 23 23 22 21 21 20 20 19 19 18 18 17 18 18 18 18 19 18 18 19 19 20 20 20 20 20 20 20
38 37 37 36 35 36 36 35 34 33 33 31 30 29 27 26 25 25 24 23 24 23 22 22 21 21 21 20 20 21 20 20 21 21 21 21 22 22 22 22 22 22 22 21
38 38 38 38 36 36 36 35 34 34 35 32 31 30 29 28 27 27 25 25 25 24 25 24 24 24 23 23 23 22 22 23 23 23 23 23 24 24 24 24 23 23 24 24
39 39 39 38 37 36 36 36 35 36 35 33 32 31 30 30 29 28 27 27 26 25 25 25 24 25 25 25 25 24 24 25 25 25 26 26 26 26 26 26 26 26 26 26
39 39 39 39 39 38 37 37 37 36 35 34 33 32 31 30 30 29 28 27 27 27 27 26 25 26 26 26 26 27 27 28 28 28 28 29 29 28 28 28 27 28 27 28
41 40 40 41 40 39 38 38 37 37 36 35 34 33 33 32 31 30 28 28 28 28 28 28 28 28 28 29 29 30 30 30 30 30 31 31 31 30 30 29 29 29 29 29
41 41 41 41 41 40 39 38 37 36 36 36 36 35 34 33 32 31 30 30 29 30 30 30 30 30 30 30 31 31 31 32 32 32 32 32 32 31 31 31 32 32 31 31
40 41 41 40 40 39 38 37 37 37 36 36 37 36 35 34 33 32 32 31 31 31 31 31 31 30 30 30 31 32 33 33 33 33 33 33 33 32 32 32 33 33 33 33
38 38 38 39 40 39 38 36 36 36 35 35 36 36 35 34 33 33 33 33 33 32 32 32 31 32 31 31 31 33 34 35 35 34 34 34 34 34 34 34 34 35 35 35
Wind_Direction
203 202 201 202 194 183 176 160 133 75 64 67 62 56 57 56 57 58 56 57 61 62 62 65 66 67 67 66 66 67 69 70 69 65 62 59 55 52 47 43 32 20 16 14
209 208 206 203 199 193 189 192 193 177 74 70 63 52 56 57 57 55 55 55 57 60 60 60 61 62 64 63 62 63 64 64 63 59 56 53 48 41 38 34 28 18 14 9
214 214 212 208 208 206 206 207 208 211 217 81 75 38 47 53 53 53 52 52 53 55 56 55 56 59 61 60 58 59 60 57 54 51 50 48 44 37 31 25 21 17 13 11
216 218 216 213 213 211 215 214 214 221 219 246 170 297 9 36 41 45 48 50 50 49 50 51 53 53 55 55 56 57 57 53 50 50 46 42 38 34 29 26 23 19 17 16
220 220 218 217 217 219 220 222 221 224 227 236 231 211 285 340 18 28 39 44 43 42 40 43 45 48 51 50 52 54 53 49 46 46 43 40 35 30 26 25 23 19 17 16
220 221 220 220 220 222 222 222 224 225 226 237 238 229 254 279 312 353 11 22 26 31 31 34 38 42 46 47 45 46 45 43 42 40 38 36 33 28 24 21 19 17 18 16
221 223 222 222 223 223 219 218 225 230 233 240 242 240 244 258 270 299 328 349 355 359 13 25 33 31 37 39 36 37 37 35 33 31 27 26 24 21 18 16 14 14 12 9
222 225 223 222 223 224 222 219 221 225 235 244 247 244 245 254 257 273 297 314 322 325 331 354 10 7 15 14 15 19 22 21 19 17 15 15 13 12 10 7 6 5 3 0
222 226 225 223 222 223 224 222 223 230 235 236 239 239 243 247 253 261 270 283 299 302 304 310 327 336 343 346 350 355 359 359 359 359 2 4 3 1 1 359 357 356 356 354
220 224 224 224 223 224 224 225 225 228 231 236 245 244 240 245 251 257 265 273 288 287 290 292 293 307 318 322 330 343 346 346 347 349 350 351 350 349 349 350 347 346 348 347
219 222 224 223 222 224 224 225 227 232 232 231 239 244 242 246 249 253 258 263 275 282 285 286 285 287 294 305 318 328 334 336 336 337 339 342 343 342 341 340 339 339 338 336
219 220 224 226 225 225 227 226 227 231 235 234 234 244 245 246 248 250 254 259 267 273 277 279 277 276 281 293 304 312 317 323 325 327 330 333 335 336 336 334 332 332 332 331
219 219 222 226 227 226 227 228 228 229 235 236 236 243 247 244 247 250 253 257 263 265 269 272 274 275 278 285 292 299 305 314 318 319 322 324 327 329 332 332 331 330 329 329
221 222 220 223 227 229 229 230 230 230 232 237 237 239 246 247 247 250 252 256 260 263 266 266 267 271 277 281 286 293 301 309 313 316 316 317 319 321 325 328 328 327 327 328
222 224 224 224 227 229 230 231 231 231 233 236 239 240 243 248 250 253 254 254 256 260 264 266 267 271 277 280 283 288 294 300 306 309 310 310 312 314 316 319 322 321 322 323
222 224 226 227 227 229 230 230 230 231 233 236 239 241 242 249 251 253 255 254 256 257 261 263 267 272 277 280 283 286 291 295 299 303 305 306 308 310 312 312 315 315 316 317
222 223 225 228 229 230 231 230 230 232 234 236 239 242 244 246 248 249 250 253 256 256 257 263 266 271 276 278 282 285 289 293 297 298 300 303 305 307 308 309 309 310 311 311
224 225 226 228 229 231 233 233 233 234 234 236 238 242 245 246 247 248 250 253 255 257 259 263 266 270 272 276 281 286 289 293 296 297 298 299 301 302 303 304 305 306 307 307
225 225 226 227 231 234 234 233 233 234 235 236 239 242 244 245 246 247 250 253 257 257 258 261 264 267 269 274 280 284 287 290 292 294 295 296 298 299 300 300 301 302 303 304
225 226 226 228 230 234 236 236 236 237 238 237 238 241 242 243 245 248 250 254 257 258 258 259 260 264 268 273 278 280 283 286 289 292 293 294 294 295 297 298 298 299 300 301
225 226 227 228 231 235 236 237 236 237 239 238 238 240 241 242 245 249 251 252 254 256 257 259 261 264 267 271 274 277 280 282 285 287 290 292 292 293 294 295 297 298 298 299
226 227 228 229 231 234 236 237 237 238 240 240 239 240 242 244 245 248 250 251 252 253 255 259 262 264 266 270 273 275 277 279 283 285 287 289 289 290 292 293 294 296 297 297
226 228 230 230 232 234 237 238 238 239 240 240 240 242 244 246 246 246 248 250 251 251 253 257 260 263 266 270 273 275 276 278 282 283 285 286 287 287 288 290 291 293 293 293
228 228 231 232 233 234 237 239 239 239 241 241 241 242 244 246 246 246 248 250 251 254 256 257 261 264 267 270 272 273 275 278 281 283 284 285 286 286 287 288 290 291 291 290
228 230 231 233 234 235 237 239 239 239 240 242 242 242 244 246 246 246 247 249 252 254 256 259 262 266 268 271 271 272 274 277 278 282 284 285 286 285 286 288 288 288 289 290
229 231 232 233 234 235 235 237 238 239 240 242 244 243 244 245 245 247 249 250 252 255 257 260 264 266 269 270 271 272 274 276 278 279 281 283 284 283 284 285 286 286 287 288
Height
5921 5924 5926 5928 5929 5931 5932 5932 5933 5932 5931 5931 5930 5929 5928 5927 5925 5924 5923 5922 5920 5919 5918 5917 5916 5915 5914 5913 5912 5911 5910 5910 5909 5908 5907 5906 5906 5905 5904 5902 5901 5900 5899 5898
5920 5922 5925 5926 5928 5929 5930 5931 5932 5932 5932 5931 5931 5931 5930 5928 5927 5926 5925 5924 5923 5921 5920 5919 5918 5917 5916 5915 5914 5913 5912 5911 5910 5909 5908 5908 5907 5905 5904 5903 5902 5901 5900 5898
5917 5921 5922 5924 5926 5927 5929 5931 5932 5932 5932 5932 5932 5932 5931 5930 5929 5928 5927 5926 5925 5924 5923 5921 5920 5919 5918 5917 5916 5915 5914 5913 5912 5911 5910 5909 5908 5906 5905 5904 5902 5901 5900 5898
5913 5916 5919 5921 5923 5925 5927 5929 5930 5931 5932 5933 5933 5934 5933 5931 5930 5929 5928 5927 5926 5925 5924 5923 5922 5921 5920 5919 5918 5916 5916 5914 5913 5912 5911 5910 5909 5907 5906 5904 5903 5901 5900 5898
5909 5912 5915 5918 5921 5923 5925 5927 5928 5929 5931 5932 5932 5934 5934 5932 5931 5930 5929 5928 5928 5927 5926 5925 5924 5923 5921 5920 5919 5918 5917 5916 5915 5913 5912 5911 5910 5908 5907 5905 5903 5902 5900 5898
5905 5908 5911 5915 5918 5920 5922 5924 5926 5927 5930 5931 5931 5933 5934 5932 5931 5931 5930 5929 5928 5928 5927 5926 5925 5924 5923 5922 5921 5919 5918 5917 5916 5914 5913 5912 5910 5909 5907 5905 5904 5902 5900 5899
5899 5903 5906 5910 5913 5916 5918 5922 5925 5927 5929 5930 5930 5930 5932 5930 5930 5930 5930 5929 5928 5928 5927 5927 5926 5925 5924 5923 5922 5920 5919 5918 5916 5915 5914 5912 5911 5909 5907 5905 5904 5902 5900 5899
5895 5899 5902 5905 5909 5912 5915 5919 5923 5926 5928 5929 5927 5928 5930 5929 5929 5929 5929 5929 5928 5927 5927 5927 5926 5925 5924 5923 5922 5921 5920 5918 5917 5916 5914 5912 5911 5909 5907 5905 5904 5902 5900 5899
5890 5894 5897 5900 5904 5908 5911 5914 5919 5922 5924 5926 5926 5926 5927 5927 5927 5927 5928 5927 5927 5927 5926 5926 5925 5925 5924 5923 5922 5921 5920 5918 5917 5916 5914 5912 5911 5909 5907 5905 5903 5902 5900 5898
5884 5888 5891 5895 5899 5902 5907 5911 5914 5917 5920 5922 5923 5923 5925 5925 5925 5926 5926 5926 5926 5925 5925 5925 5924 5924 5923 5923 5922 5920 5919 5918 5917 5915 5914 5912 5910 5908 5906 5904 5902 5901 5899 5897
5878 5883 5887 5889 5893 5897 5902 5906 5909 5913 5915 5919 5922 5924 5922 5922 5923 5924 5924 5924 5925 5924 5924 5924 5923 5923 5922 5921 5920 5920 5918 5917 5916 5914 5913 5911 5909 5907 5905 5903 5901 5899 5898 5896
5871 5877 5881 5884 5889 5893 5897 5900 5904 5908 5910 5913 5918 5921 5918 5919 5920 5921 5922 5922 5922 5922 5922 5922 5921 5921 5920 5920 5919 5918 5917 5916 5914 5913 5911 5909 5907 5905 5903 5901 5900 5898 5896 5894
5865 5870 5875 5879 5884 5887 5890 5894 5899 5903 5906 5909 5913 5917 5914 5915 5917 5918 5919 5919 5919 5920 5920 5920 5920 5919 5919 5918 5917 5916 5915 5914 5913 5911 5910 5908 5906 5904 5902 5900 5898 5896 5894 5892
5858 5863 5869 5875 5878 5881 5885 5889 5893 5897 5901 5904 5907 5911 5910 5911 5913 5914 5915 5916 5916 5917 5917 5917 5917 5917 5916 5916 5915 5914 5913 5912 5911 5909 5908 5906 5904 5902 5900 5898 5896 5894 5892 5890
5851 5856 5862 5867 5872 5875 5879 5883 5886 5890 5895 5899 5902 5904 5905 5907 5908 5909 5910 5911 5912 5913 5913 5914 5914 5914 5914 5913 5912 5911 5910 5909 5908 5907 5905 5903 5902 5900 5898 5895 5894 5892 5890 5887
5844 5849 5855 5859 5864 5868 5872 5876 5880 5884 5888 5892 5895 5898 5900 5902 5903 5905 5906 5907 5908 5909 5909 5910 5910 5910 5910 5909 5909 5908 5907 5906 5905 5903 5902 5900 5898 5897 5895 5893 5891 5889 5886 5884
5837 5842 5848 5853 5857 5861 5864 5868 5873 5877 5881 5885 5888 5892 5894 5896 5898 5899 5901 5902 5903 5904 5905 5905 5906 5906 5906 5906 5905 5904 5903 5902 5901 5900 5898 5897 5895 5893 5891 5889 5887 5885 5883 5881
5829 5835 5840 5846 5850 5853 5859 5863 5867 5871 5874 5878 5881 5884 5887 5890 5892 5894 5895 5897 5898 5899 5900 5900 5901 5901 5901 5901 5901 5900 5899 5898 5897 5895 5894 5892 5890 5888 5886 5885 5883 5881 5879 5876
5822 5827 5833 5838 5842 5845 5850 5854 5859 5863 5867 5871 5874 5877 5881 5883 5885 5887 5889 5890 5892 5893 5894 5895 5895 5896 5896 5896 5895 5895 5894 5893 5892 5891 5889 5887 5885 5883 5882 5880 5878 5876 5873 5871
5814 5819 5825 5829 5834 5838 5843 5847 5851 5856 5858 5863 5867 5870 5873 5876 5879 5881 5882 5884 5885 5886 5888 5888 5889 5890 5890 5890 5889 5889 5888 5887 5886 5885 5884 5882 5880 5878 5876 5874 5872 5870 5868 5866
5805 5810 5815 5820 5825 5830 5835 5839 5843 5848 5852 5856 5859 5863 5866 5868 5872 5874 5875 5877 5878 5880 5881 5882 5882 5883 5883 5883 5883 5883 5882 5881 5880 5878 5877 5875 5873 5871 5869 5868 5866 5864 5861 5859
5797 5802 5807 5812 5817 5824 5826 5830 5835 5839 5844 5847 5851 5854 5858 5861 5864 5866 5868 5870 5872 5873 5874 5875 5876 5876 5876 5876 5876 5876 5875 5874 5873 5871 5870 5868 5866 5864 5862 5860 5859 5857 5854 5852
5788 5794 5798 5804 5810 5813 5817 5821 5826 5831 5835 5838 5842 5846 5850 5853 5855 5858 5860 5862 5864 5865 5866 5867 5868 5868 5869 5869 5868 5868 5867 5866 5865 5863 5862 5860 5858 5856 5854 5852 5851 5849 5846 5844
5778 5784 5788 5794 5799 5804 5808 5812 5817 5821 5826 5830 5834 5837 5841 5844 5847 5850 5852 5854 5856 5857 5858 5859 5860 5860 5861 5861 5860 5859 5859 5858 5856 5855 5853 5851 5849 5847 5846 5844 5842 5840 5838 5835
5768 5774 5779 5784 5790 5795 5799 5804 5808 5813 5816 5820 5824 5828 5832 5835 5838 5841 5843 5845 5847 5849 5850 5851 5851 5852 5852 5852 5851 5850 5849 5849 5847 5846 5844 5842 5840 5838 5837 5835 5833 5831 5829 5826
5760 5766 5771 5776 5781 5786 5791 5795 5799 5803 5807 5811 5815 5819 5822 5826 5829 5832 5834 5836 5838 5839 5841 5842 5842 5843 5843 5842 5842 5841 5840 5839 5838 5836 5835 5833 5831 5829 5827 5825 5824 5821 5819 5817